Starlink 11161

operational
NORAD ID: 60124 Int'l Des: 2024-118 Owner: SPXS Country: US Constellation: starlink
LEOCIRCULAR

关于 Starlink 11161

正在加载描述...

实时位置

正在加载3D地球...

即将过境

高度历史

Altitude vs Time

uPlot chart will show altitude changes over time

两行轨道根数

1 60124U 24118M 26095.27408848 .00000752 00000-0 11070-4 0 9999
2 60124 53.1587 90.5802 0001254 55.2598 304.8538 15.69692712102163
Epoch: Apr 5, 2026 • Age: 12 hours

当前状态

高度 378.3 km
速度 7.68 km/s
星下点 -51.86°S, 94.57°W
发射日期 Jun 24, 2024
运行时间 1.7 years
类型 internet

技术详情

分类 Payload
质量 960.00 kg
干质量 910.00 kg
总质量 960.00 kg
长度 0.30 m
直径 4.10 m
跨度 29.00 m
形状 Box + pan
制造商 SPXS
平台类型 Starlink V2MD
阶段状态 In Orbit
所有者/国家 SPXS/US

大型星座

Loading constellations...